Time,TemperatureF,DewpointF,PressureIn,WindDirection,WindDirectionDegrees,WindSpeedMPH,WindSpeedGustMPH,Humidity,HourlyPrecipIn,Conditions,Clouds,dailyrainin,SoftwareType,DateUTC
2013-07-22 00:00:00,72.7,69.9,29.97,ESE,115,0.0,0.0,91,0.00,,OVC100,0.00,VWS V14.01,2013-07-22 04:00:00,
2013-07-22 00:01:00,72.7,69.9,29.97,ESE,115,0.0,0.0,91,0.00,,OVC100,0.00,VWS V14.01,2013-07-22 04:01:00,
2013-07-22 00:02:00,72.7,69.9,29.97,ESE,115,0.0,0.0,91,0.00,,OVC100,0.00,VWS V14.01,2013-07-22 04:02:00,
2013-07-22 00:07:00,72.6,69.8,29.96,ESE,115,0.0,0.0,91,0.00,,OVC100,0.00,VWS V14.01,2013-07-22 04:07:00,
2013-07-22 00:12:00,72.5,70.1,29.97,ESE,115,0.0,0.0,92,0.00,,OVC100,0.00,VWS V14.01,2013-07-22 04:12:00,
2013-07-22 00:17:00,72.5,70.1,29.97,ESE,115,0.0,0.0,92,0.00,,OVC100,0.00,VWS V14.01,2013-07-22 04:17:00,
2013-07-22 00:22:00,72.5,70.1,29.96,ESE,115,0.0,0.0,92,0.00,,OVC100,0.00,VWS V14.01,2013-07-22 04:22:00,
2013-07-22 00:27:00,72.5,70.1,29.96,ESE,115,0.0,0.0,92,0.00,,OVC100,0.00,VWS V14.01,2013-07-22 04:27:00,
2013-07-22 00:32:00,72.4,69.9,29.96,ESE,115,0.0,0.0,92,0.00,,OVC100,0.00,VWS V14.01,2013-07-22 04:32:00,
2013-07-22 00:37:00,72.4,70.3,29.97,ESE,115,0.0,0.0,93,0.00,,OVC100,0.00,VWS V14.01,2013-07-22 04:37:00,
2013-07-22 00:42:00,72.3,70.2,29.97,ESE,115,0.0,0.0,93,0.00,,OVC100,0.00,VWS V14.01,2013-07-22 04:42:00,
2013-07-22 00:47:00,72.3,70.2,29.97,ESE,115,0.0,0.0,93,0.00,,OVC100,0.00,VWS V14.01,2013-07-22 04:47:00,
2013-07-22 00:52:00,72.3,70.2,29.97,ESE,115,0.0,0.0,93,0.00,,OVC100,0.00,VWS V14.01,2013-07-22 04:52:00,
2013-07-22 00:57:00,72.4,70.3,29.97,ESE,115,0.0,0.0,93,0.00,,OVC100,0.00,VWS V14.01,2013-07-22 04:57:00,
2013-07-22 01:02:00,72.4,70.3,29.96,ESE,115,0.0,0.0,93,0.00,,CLR,0.00,VWS V14.01,2013-07-22 05:02:00,
2013-07-22 01:07:00,72.4,70.3,29.97,ESE,115,0.0,0.0,93,0.00,,CLR,0.00,VWS V14.01,2013-07-22 05:07:00,
2013-07-22 01:12:00,72.4,70.3,29.96,ESE,115,0.0,0.0,93,0.00,,CLR,0.00,VWS V14.01,2013-07-22 05:12:00,
2013-07-22 01:17:00,72.3,70.2,29.96,ESE,115,0.0,0.0,93,0.00,,CLR,0.00,VWS V14.01,2013-07-22 05:17:00,
2013-07-22 01:22:00,72.2,70.1,29.96,ESE,115,0.0,0.0,93,0.00,,CLR,0.00,VWS V14.01,2013-07-22 05:22:00,
2013-07-22 01:27:00,72.1,70.0,29.96,ESE,115,0.0,0.0,93,0.00,,CLR,0.00,VWS V14.01,2013-07-22 05:27:00,
2013-07-22 01:32:00,72.0,69.9,29.96,ESE,115,0.0,0.0,93,0.00,,CLR,0.00,VWS V14.01,2013-07-22 05:32:00,
2013-07-22 01:37:00,72.1,70.0,29.96,ESE,109,0.0,0.0,93,0.00,,CLR,0.00,VWS V14.01,2013-07-22 05:37:00,
2013-07-22 01:42:00,72.1,70.0,29.96,ESE,109,0.0,0.0,93,0.00,,CLR,0.00,VWS V14.01,2013-07-22 05:42:00,
2013-07-22 01:47:00,72.1,70.0,29.95,ESE,109,0.0,0.0,93,0.00,,CLR,0.00,VWS V14.01,2013-07-22 05:47:00,
2013-07-22 01:52:00,72.0,69.9,29.95,ESE,109,0.0,0.0,93,0.00,,CLR,0.00,VWS V14.01,2013-07-22 05:52:00,
2013-07-22 01:58:00,71.9,69.8,29.95,ESE,109,0.0,0.0,93,0.00,,CLR,0.00,VWS V14.01,2013-07-22 05:58:00,
2013-07-22 02:03:00,71.9,69.8,29.94,ESE,109,0.0,0.0,93,0.00,,SCT100,0.00,VWS V14.01,2013-07-22 06:03:00,
2013-07-22 02:08:00,71.9,69.8,29.94,ESE,109,0.0,0.0,93,0.00,,SCT100,0.00,VWS V14.01,2013-07-22 06:08:00,
2013-07-22 02:13:00,72.0,69.9,29.94,ESE,109,0.0,0.0,93,0.00,,SCT100,0.00,VWS V14.01,2013-07-22 06:13:00,
2013-07-22 02:18:00,72.1,70.0,29.94,ENE,67,0.0,0.0,93,0.00,,SCT100,0.00,VWS V14.01,2013-07-22 06:18:00,
2013-07-22 02:23:00,72.2,70.1,29.94,ENE,67,0.0,0.0,93,0.00,,SCT100,0.00,VWS V14.01,2013-07-22 06:23:00,
2013-07-22 02:28:00,72.2,70.1,29.94,ENE,67,0.0,0.0,93,0.00,,SCT100,0.00,VWS V14.01,2013-07-22 06:28:00,
2013-07-22 02:33:00,72.1,70.0,29.94,ENE,67,0.0,0.0,93,0.00,,SCT100,0.00,VWS V14.01,2013-07-22 06:33:00,
2013-07-22 02:38:00,72.0,69.9,29.94,ENE,67,0.0,0.0,93,0.00,,SCT100,0.00,VWS V14.01,2013-07-22 06:38:00,
2013-07-22 02:43:00,71.9,69.8,29.94,ENE,67,0.0,0.0,93,0.00,,SCT100,0.00,VWS V14.01,2013-07-22 06:43:00,
2013-07-22 02:48:00,71.9,69.8,29.94,ENE,67,0.0,0.0,93,0.00,,SCT100,0.00,VWS V14.01,2013-07-22 06:48:00,
2013-07-22 02:53:00,71.9,69.8,29.94,ENE,67,0.0,0.0,93,0.00,,SCT100,0.00,VWS V14.01,2013-07-22 06:53:00,
2013-07-22 02:58:00,71.9,69.8,29.94,ENE,67,0.0,0.0,93,0.00,,SCT100,0.00,VWS V14.01,2013-07-22 06:58:00,
2013-07-22 03:03:00,71.8,69.7,29.94,ENE,67,0.0,0.0,93,0.00,,CLR,0.00,VWS V14.01,2013-07-22 07:03:00,
2013-07-22 03:08:00,71.8,69.7,29.94,ENE,67,0.0,0.0,93,0.00,,CLR,0.00,VWS V14.01,2013-07-22 07:08:00,
2013-07-22 03:13:00,71.8,69.7,29.94,ENE,67,0.0,0.0,93,0.00,,CLR,0.00,VWS V14.01,2013-07-22 07:13:00,
2013-07-22 03:18:00,71.9,69.8,29.95,ENE,67,0.0,0.0,93,0.00,,CLR,0.00,VWS V14.01,2013-07-22 07:18:00,
2013-07-22 03:23:00,71.9,69.8,29.95,ENE,67,0.0,0.0,93,0.00,,CLR,0.00,VWS V14.01,2013-07-22 07:23:00,
2013-07-22 03:28:00,71.9,69.8,29.95,ENE,67,0.0,0.0,93,0.00,,CLR,0.00,VWS V14.01,2013-07-22 07:28:00,
2013-07-22 03:33:00,72.0,69.9,29.95,ENE,67,0.0,0.0,93,0.00,,CLR,0.00,VWS V14.01,2013-07-22 07:33:00,
2013-07-22 03:38:00,72.0,69.9,29.95,ENE,67,0.0,0.0,93,0.00,,CLR,0.00,VWS V14.01,2013-07-22 07:38:00,
2013-07-22 03:43:00,71.9,69.8,29.95,ENE,67,0.0,0.0,93,0.00,,CLR,0.00,VWS V14.01,2013-07-22 07:43:00,
2013-07-22 03:48:00,71.9,69.8,29.94,ENE,67,0.0,0.0,93,0.00,,CLR,0.00,VWS V14.01,2013-07-22 07:48:00,
2013-07-22 03:53:00,71.9,69.8,29.94,ENE,67,0.0,0.0,93,0.00,,CLR,0.00,VWS V14.01,2013-07-22 07:53:00,
2013-07-22 03:58:00,71.9,69.8,29.95,ENE,67,0.0,0.0,93,0.00,,CLR,0.00,VWS V14.01,2013-07-22 07:58:00,
2013-07-22 04:03:00,72.0,69.9,29.94,ENE,67,0.0,0.0,93,0.00,,FEW120,0.00,VWS V14.01,2013-07-22 08:03:00,
2013-07-22 04:09:00,72.1,70.3,29.94,ENE,67,0.0,0.0,94,0.00,,FEW120,0.00,VWS V14.01,2013-07-22 08:09:00,
2013-07-22 04:14:00,72.3,70.5,29.94,ENE,67,0.0,0.0,94,0.00,,FEW120,0.00,VWS V14.01,2013-07-22 08:14:00,
2013-07-22 04:19:00,72.4,70.6,29.94,ENE,67,0.0,0.0,94,0.00,,FEW120,0.00,VWS V14.01,2013-07-22 08:19:00,
2013-07-22 04:24:00,72.5,70.4,29.94,ENE,67,0.0,0.0,93,0.00,,FEW120,0.00,VWS V14.01,2013-07-22 08:24:00,
2013-07-22 04:29:00,72.5,70.4,29.94,ENE,67,0.0,0.0,93,0.00,,FEW120,0.00,VWS V14.01,2013-07-22 08:29:00,
2013-07-22 04:34:00,72.4,70.3,29.94,ENE,67,0.0,0.0,93,0.00,,FEW120,0.00,VWS V14.01,2013-07-22 08:34:00,
2013-07-22 04:39:00,72.4,70.3,29.95,ENE,67,0.0,0.0,93,0.00,,FEW120,0.00,VWS V14.01,2013-07-22 08:39:00,
2013-07-22 04:44:00,72.4,70.3,29.95,ENE,67,0.0,0.0,93,0.00,,FEW120,0.00,VWS V14.01,2013-07-22 08:44:00,
2013-07-22 04:49:00,72.6,70.5,29.95,ENE,67,0.0,0.0,93,0.00,,FEW120,0.00,VWS V14.01,2013-07-22 08:49:00,
2013-07-22 04:54:00,72.6,70.5,29.95,ENE,67,0.0,0.0,93,0.00,,FEW120,0.00,VWS V14.01,2013-07-22 08:54:00,
2013-07-22 04:59:00,72.6,70.5,29.95,ENE,67,0.0,0.0,93,0.00,,FEW120,0.00,VWS V14.01,2013-07-22 08:59:00,
2013-07-22 05:04:00,72.6,70.5,29.95,ENE,67,0.0,0.0,93,0.00,,FEW120,0.00,VWS V14.01,2013-07-22 09:04:00,
2013-07-22 05:09:00,72.6,70.5,29.95,ENE,67,0.0,0.0,93,0.00,,OVC110,0.00,VWS V14.01,2013-07-22 09:09:00,
2013-07-22 05:14:00,72.6,70.5,29.95,ENE,67,0.0,0.0,93,0.00,,OVC110,0.00,VWS V14.01,2013-07-22 09:14:00,
2013-07-22 05:19:00,72.6,70.5,29.95,ENE,67,0.0,0.0,93,0.00,,OVC110,0.00,VWS V14.01,2013-07-22 09:19:00,
2013-07-22 05:24:00,72.6,70.5,29.95,ENE,67,0.0,0.0,93,0.00,,OVC110,0.00,VWS V14.01,2013-07-22 09:24:00,
2013-07-22 05:29:00,72.6,70.5,29.95,ENE,67,0.0,0.0,93,0.00,,OVC110,0.00,VWS V14.01,2013-07-22 09:29:00,
2013-07-22 05:34:00,72.6,70.5,29.95,ENE,67,0.0,0.0,93,0.00,,OVC110,0.00,VWS V14.01,2013-07-22 09:34:00,
2013-07-22 05:39:00,72.6,70.5,29.95,ENE,67,0.0,0.0,93,0.00,,OVC110,0.00,VWS V14.01,2013-07-22 09:39:00,
2013-07-22 05:44:00,72.6,70.5,29.95,ENE,67,0.0,0.0,93,0.00,,OVC110,0.00,VWS V14.01,2013-07-22 09:44:00,
2013-07-22 05:49:00,72.7,70.6,29.94,ENE,67,0.0,0.0,93,0.00,,OVC110,0.00,VWS V14.01,2013-07-22 09:49:00,
2013-07-22 05:54:00,72.6,70.5,29.95,ENE,67,0.0,0.0,93,0.00,,OVC110,0.00,VWS V14.01,2013-07-22 09:54:00,
2013-07-22 05:59:00,72.7,70.2,29.95,ENE,67,0.0,0.0,92,0.00,,BKN100,0.00,VWS V14.01,2013-07-22 09:59:00,
2013-07-22 06:05:00,72.7,70.2,29.95,ENE,67,0.0,0.0,92,0.00,,BKN100,0.00,VWS V14.01,2013-07-22 10:05:00,
2013-07-22 06:10:00,72.7,70.2,29.95,ENE,67,0.0,0.0,92,0.00,,BKN100,0.00,VWS V14.01,2013-07-22 10:10:00,
2013-07-22 06:15:00,72.7,70.2,29.95,ENE,67,0.0,0.0,92,0.00,,BKN100,0.00,VWS V14.01,2013-07-22 10:15:00,
2013-07-22 06:20:00,72.7,70.2,29.95,ENE,67,0.0,0.0,92,0.00,,BKN100,0.00,VWS V14.01,2013-07-22 10:20:00,
2013-07-22 06:25:00,72.6,70.2,29.95,ENE,67,0.0,0.0,92,0.00,,BKN100,0.00,VWS V14.01,2013-07-22 10:25:00,
2013-07-22 06:30:00,72.8,70.3,29.95,ENE,67,0.0,0.0,92,0.00,,BKN100,0.00,VWS V14.01,2013-07-22 10:30:00,
2013-07-22 06:35:00,72.9,70.4,29.95,ENE,67,0.0,0.0,92,0.00,,BKN100,0.00,VWS V14.01,2013-07-22 10:35:00,
2013-07-22 06:40:00,73.1,70.6,29.95,ENE,67,0.0,0.0,92,0.00,,BKN100,0.00,VWS V14.01,2013-07-22 10:40:00,
2013-07-22 06:45:00,73.2,70.7,29.95,ENE,67,0.0,0.0,92,0.00,,OVC060,0.00,VWS V14.01,2013-07-22 10:45:00,
2013-07-22 06:50:00,73.4,70.9,29.95,ENE,63,0.0,0.0,92,0.00,,OVC060,0.00,VWS V14.01,2013-07-22 10:50:00,
2013-07-22 06:55:00,73.5,71.0,29.95,ENE,63,0.0,0.0,92,0.00,,OVC060,0.00,VWS V14.01,2013-07-22 10:55:00,
2013-07-22 07:00:00,73.6,70.8,29.95,ENE,63,0.0,0.0,91,0.00,,OVC012,0.00,VWS V14.01,2013-07-22 11:00:00,
2013-07-22 07:05:00,73.6,70.8,29.95,ENE,63,0.0,0.0,91,0.00,,OVC012,0.00,VWS V14.01,2013-07-22 11:05:00,
2013-07-22 07:10:00,73.8,71.0,29.95,ENE,57,0.0,0.0,91,0.00,,OVC012,0.00,VWS V14.01,2013-07-22 11:10:00,
2013-07-22 07:15:00,73.9,70.8,29.95,NE,43,0.0,0.0,90,0.00,,OVC012,0.00,VWS V14.01,2013-07-22 11:15:00,
2013-07-22 07:20:00,74.0,70.9,29.95,NE,44,0.0,0.0,90,0.00,,OVC012,0.00,VWS V14.01,2013-07-22 11:20:00,
2013-07-22 07:25:00,74.1,71.3,29.95,NE,43,0.0,0.0,91,0.00,,OVC012,0.00,VWS V14.01,2013-07-22 11:25:00,
2013-07-22 07:30:00,74.4,71.3,29.95,NE,44,0.0,0.0,90,0.00,,OVC012,0.00,VWS V14.01,2013-07-22 11:30:00,
2013-07-22 07:35:00,74.7,71.6,29.95,NE,44,0.0,0.0,90,0.00,,OVC012,0.00,VWS V14.01,2013-07-22 11:35:00,
2013-07-22 07:40:00,75.0,71.9,29.95,NE,44,0.0,0.0,90,0.00,,OVC012,0.00,VWS V14.01,2013-07-22 11:40:00,
2013-07-22 07:45:00,75.3,71.8,29.95,NE,43,0.0,0.0,89,0.00,,OVC012,0.00,VWS V14.01,2013-07-22 11:45:00,
2013-07-22 07:50:00,75.6,72.1,29.95,NE,43,0.0,0.0,89,0.00,,OVC012,0.00,VWS V14.01,2013-07-22 11:50:00,
2013-07-22 07:55:00,75.8,72.3,29.95,NE,43,0.0,0.0,89,0.00,,OVC012,0.00,VWS V14.01,2013-07-22 11:55:00,
2013-07-22 08:00:00,76.1,72.6,29.95,NNE,27,0.0,0.0,89,0.00,,BKN014,0.00,VWS V14.01,2013-07-22 12:00:00,
2013-07-22 08:05:00,76.4,72.6,29.95,NNE,25,0.0,0.0,88,0.00,,BKN014,0.00,VWS V14.01,2013-07-22 12:05:00,
2013-07-22 08:10:00,76.6,72.8,29.95,NNE,25,0.0,0.0,88,0.00,,BKN016,0.00,VWS V14.01,2013-07-22 12:10:00,
2013-07-22 08:16:00,76.7,72.9,29.95,NNE,25,0.0,0.0,88,0.00,,BKN016,0.00,VWS V14.01,2013-07-22 12:16:00,
2013-07-22 08:21:00,76.9,73.1,29.95,NNE,24,0.0,0.0,88,0.00,,BKN016,0.00,VWS V14.01,2013-07-22 12:21:00,
2013-07-22 08:26:00,77.2,73.0,29.95,NNW,332,1.0,2.0,87,0.00,,BKN016,0.00,VWS V14.01,2013-07-22 12:26:00,
2013-07-22 08:31:00,77.4,73.2,29.96,NE,39,0.0,0.0,87,0.00,,FEW016,0.00,VWS V14.01,2013-07-22 12:31:00,
2013-07-22 08:36:00,77.7,73.5,29.96,North,360,0.0,3.0,87,0.00,,FEW016,0.00,VWS V14.01,2013-07-22 12:36:00,
2013-07-22 08:41:00,78.0,73.5,29.96,NNE,15,0.0,3.0,86,0.00,,FEW016,0.00,VWS V14.01,2013-07-22 12:41:00,
2013-07-22 08:46:00,78.2,73.7,29.96,NNE,27,0.0,3.0,86,0.00,,FEW016,0.00,VWS V14.01,2013-07-22 12:46:00,
2013-07-22 08:51:00,78.5,73.6,29.96,ENE,61,0.0,4.0,85,0.00,,FEW016,0.00,VWS V14.01,2013-07-22 12:51:00,
2013-07-22 08:56:00,78.7,73.5,29.96,SE,145,0.0,5.0,84,0.00,,FEW016,0.00,VWS V14.01,2013-07-22 12:56:00,
2013-07-22 09:01:00,78.4,73.2,29.95,SE,140,1.0,5.0,84,0.00,,FEW018,0.00,VWS V14.01,2013-07-22 13:01:00,
2013-07-22 09:06:00,78.5,73.6,29.95,SSE,155,3.0,5.0,85,0.00,,FEW018,0.00,VWS V14.01,2013-07-22 13:06:00,
2013-07-22 09:11:00,78.5,73.3,29.95,ESE,115,2.0,5.0,84,0.00,,FEW018,0.00,VWS V14.01,2013-07-22 13:11:00,
2013-07-22 09:16:00,78.9,73.7,29.95,South,173,0.0,5.0,84,0.00,,FEW018,0.00,VWS V14.01,2013-07-22 13:16:00,
2013-07-22 09:21:00,79.5,73.9,29.95,East,94,0.0,5.0,83,0.00,,FEW018,0.00,VWS V14.01,2013-07-22 13:21:00,
2013-07-22 09:26:00,79.6,73.6,29.95,SE,143,1.0,7.0,82,0.00,,FEW018,0.00,VWS V14.01,2013-07-22 13:26:00,
2013-07-22 09:31:00,79.4,73.4,29.95,East,99,1.0,3.0,82,0.00,,BKN055,0.00,VWS V14.01,2013-07-22 13:31:00,
2013-07-22 09:36:00,79.4,73.4,29.95,East,86,2.0,4.0,82,0.00,,BKN055,0.00,VWS V14.01,2013-07-22 13:36:00,
2013-07-22 09:41:00,79.6,73.6,29.95,ENE,78,1.0,4.0,82,0.00,,BKN055,0.00,VWS V14.01,2013-07-22 13:41:00,
2013-07-22 09:46:00,79.9,73.6,29.95,SSE,157,0.0,4.0,81,0.00,,BKN055,0.00,VWS V14.01,2013-07-22 13:46:00,
2013-07-22 09:51:00,80.0,73.3,29.95,North,360,2.0,4.0,80,0.00,,BKN055,0.00,VWS V14.01,2013-07-22 13:51:00,
2013-07-22 09:56:00,80.3,73.9,29.95,NE,42,0.0,5.0,81,0.00,,BKN055,0.00,VWS V14.01,2013-07-22 13:56:00,
2013-07-22 10:01:00,80.9,73.8,29.96,NE,43,0.0,4.0,79,0.00,,OVC020,0.00,VWS V14.01,2013-07-22 14:01:00,
2013-07-22 10:07:00,81.5,74.4,29.96,NNE,30,1.0,4.0,79,0.00,,OVC020,0.00,VWS V14.01,2013-07-22 14:07:00,
2013-07-22 10:12:00,81.8,73.9,29.96,SSE,154,4.0,4.0,77,0.00,,OVC020,0.00,VWS V14.01,2013-07-22 14:12:00,
2013-07-22 10:17:00,81.7,73.8,29.96,NE,40,0.0,5.0,77,0.00,,OVC020,0.00,VWS V14.01,2013-07-22 14:17:00,
2013-07-22 10:22:00,81.5,74.0,29.96,ENE,64,2.0,5.0,78,0.00,,OVC020,0.00,VWS V14.01,2013-07-22 14:22:00,
2013-07-22 10:27:00,81.6,73.7,29.95,SE,140,0.0,5.0,77,0.00,,OVC020,0.00,VWS V14.01,2013-07-22 14:27:00,
2013-07-22 10:32:00,81.7,74.2,29.95,NE,38,2.0,3.0,78,0.00,,OVC020,0.00,VWS V14.01,2013-07-22 14:32:00,
2013-07-22 10:37:00,81.8,73.9,29.95,ENE,67,1.0,4.0,77,0.00,,OVC020,0.00,VWS V14.01,2013-07-22 14:37:00,
2013-07-22 10:42:00,81.7,74.2,29.95,East,98,1.0,4.0,78,0.00,,OVC020,0.00,VWS V14.01,2013-07-22 14:42:00,
2013-07-22 10:47:00,81.5,74.4,29.95,ENE,60,2.0,4.0,79,0.00,,OVC020,0.00,VWS V14.01,2013-07-22 14:47:00,
2013-07-22 10:52:00,81.4,74.3,29.95,ENE,75,1.0,4.0,79,0.00,,OVC020,0.00,VWS V14.01,2013-07-22 14:52:00,
2013-07-22 10:57:00,81.3,73.8,29.95,ENE,65,2.0,8.0,78,0.00,,OVC020,0.00,VWS V14.01,2013-07-22 14:57:00,
2013-07-22 11:02:00,81.2,74.1,29.95,NE,48,1.0,4.0,79,0.00,,OVC024,0.00,VWS V14.01,2013-07-22 15:02:00,
2013-07-22 11:07:00,81.3,74.5,29.95,NE,49,0.0,4.0,80,0.00,,OVC024,0.00,VWS V14.01,2013-07-22 15:07:00,
2013-07-22 11:12:00,81.1,74.3,29.95,NE,53,0.0,4.0,80,0.00,,OVC024,0.00,VWS V14.01,2013-07-22 15:12:00,
2013-07-22 11:17:00,80.7,74.0,29.95,SE,136,2.0,5.0,80,0.00,,OVC024,0.00,VWS V14.01,2013-07-22 15:17:00,
2013-07-22 11:22:00,80.4,73.7,29.95,ESE,123,0.0,5.0,80,0.00,,OVC024,0.00,VWS V14.01,2013-07-22 15:22:00,
2013-07-22 11:27:00,80.4,74.0,29.95,SE,142,0.0,5.0,81,0.00,,OVC024,0.00,VWS V14.01,2013-07-22 15:27:00,
2013-07-22 11:32:00,81.0,75.3,29.95,ENE,63,0.0,3.0,83,0.00,,OVC024,0.00,VWS V14.01,2013-07-22 15:32:00,
2013-07-22 11:37:00,81.7,75.7,29.95,ENE,67,2.0,3.0,82,0.00,,OVC024,0.00,VWS V14.01,2013-07-22 15:37:00,
2013-07-22 11:42:00,82.5,75.3,29.95,ENE,62,0.0,4.0,79,0.00,,OVC024,0.00,VWS V14.01,2013-07-22 15:42:00,
2013-07-22 11:47:00,83.5,75.1,29.94,SSE,149,3.0,4.0,76,0.00,,OVC024,0.00,VWS V14.01,2013-07-22 15:47:00,
2013-07-22 11:52:00,83.9,75.5,29.94,SE,143,0.0,4.0,76,0.00,,OVC024,0.00,VWS V14.01,2013-07-22 15:52:00,
2013-07-22 11:57:00,84.4,75.6,29.94,ESE,122,0.0,8.0,75,0.00,,OVC024,0.00,VWS V14.01,2013-07-22 15:57:00,
2013-07-22 12:02:00,84.9,74.9,29.94,NE,56,1.0,4.0,72,0.00,,OVC050,0.00,VWS V14.01,2013-07-22 16:02:00,
2013-07-22 12:07:00,85.6,75.5,29.94,ENE,61,1.0,4.0,72,0.00,,OVC050,0.00,VWS V14.01,2013-07-22 16:07:00,
2013-07-22 12:12:00,85.8,74.9,29.94,SSE,154,0.0,4.0,70,0.00,,OVC050,0.00,VWS V14.01,2013-07-22 16:12:00,
2013-07-22 12:17:00,85.3,74.8,29.94,SE,144,0.0,4.0,71,0.00,,OVC050,0.00,VWS V14.01,2013-07-22 16:17:00,
2013-07-22 12:22:00,85.1,75.5,29.94,SE,144,1.0,4.0,73,0.00,,OVC050,0.00,VWS V14.01,2013-07-22 16:22:00,
2013-07-22 12:27:00,84.6,74.6,29.94,SE,141,0.0,4.0,72,0.00,,BKN040,0.00,VWS V14.01,2013-07-22 16:27:00,
2013-07-22 12:32:00,84.3,75.1,29.93,South,187,1.0,3.0,74,0.00,,BKN040,0.00,VWS V14.01,2013-07-22 16:32:00,
2013-07-22 12:37:00,84.7,75.5,29.93,SE,130,2.0,3.0,74,0.00,,BKN040,0.00,VWS V14.01,2013-07-22 16:37:00,
2013-07-22 12:42:00,85.1,75.5,29.93,SE,128,1.0,3.0,73,0.00,,BKN040,0.00,VWS V14.01,2013-07-22 16:42:00,
2013-07-22 12:47:00,85.6,75.5,29.93,ENE,78,0.0,3.0,72,0.00,,BKN040,0.00,VWS V14.01,2013-07-22 16:47:00,
2013-07-22 12:52:00,85.8,75.7,29.92,SSE,150,1.0,5.0,72,0.00,,BKN040,0.00,VWS V14.01,2013-07-22 16:52:00,
2013-07-22 12:57:00,85.4,75.3,29.92,East,82,1.0,6.0,72,0.00,,BKN040,0.00,VWS V14.01,2013-07-22 16:57:00,
2013-07-22 13:02:00,85.7,75.6,29.92,SSE,160,1.0,5.0,72,0.00,,CLR,0.00,VWS V14.01,2013-07-22 17:02:00,
2013-07-22 13:07:00,86.0,75.5,29.92,NE,40,1.0,7.0,71,0.00,,CLR,0.00,VWS V14.01,2013-07-22 17:07:00,
2013-07-22 13:12:00,86.1,75.6,29.92,South,185,2.0,7.0,71,0.00,,CLR,0.00,VWS V14.01,2013-07-22 17:12:00,
2013-07-22 13:17:00,86.1,75.6,29.92,South,178,0.0,7.0,71,0.00,,CLR,0.00,VWS V14.01,2013-07-22 17:17:00,
2013-07-22 13:22:00,86.5,75.1,29.91,NE,40,1.0,7.0,69,0.00,,CLR,0.00,VWS V14.01,2013-07-22 17:22:00,
2013-07-22 13:27:00,86.5,75.1,29.91,East,80,2.0,7.0,69,0.00,,CLR,0.00,VWS V14.01,2013-07-22 17:27:00,
2013-07-22 13:32:00,86.2,75.7,29.91,SSE,147,3.0,4.0,71,0.00,,CLR,0.00,VWS V14.01,2013-07-22 17:32:00,
2013-07-22 13:37:00,85.9,75.0,29.91,ESE,114,0.0,6.0,70,0.00,,CLR,0.00,VWS V14.01,2013-07-22 17:37:00,
2013-07-22 13:42:00,85.9,75.4,29.91,SE,134,1.0,6.0,71,0.00,,CLR,0.00,VWS V14.01,2013-07-22 17:42:00,
2013-07-22 13:47:00,86.7,76.2,29.90,SSE,151,0.0,6.0,71,0.00,,CLR,0.00,VWS V14.01,2013-07-22 17:47:00,
2013-07-22 13:52:00,87.8,75.9,29.90,ENE,59,0.0,6.0,68,0.00,,CLR,0.00,VWS V14.01,2013-07-22 17:52:00,
2013-07-22 13:57:00,88.6,76.2,29.90,ENE,72,0.0,7.0,67,0.00,,CLR,0.00,VWS V14.01,2013-07-22 17:57:00,
2013-07-22 14:03:00,87.8,75.0,29.90,SSE,150,2.0,6.0,66,0.00,,BKN044,0.00,VWS V14.01,2013-07-22 18:03:00,
2013-07-22 14:08:00,87.2,75.4,29.89,SE,134,2.0,6.0,68,0.00,,BKN044,0.00,VWS V14.01,2013-07-22 18:08:00,
2013-07-22 14:13:00,86.9,75.9,29.89,SE,140,4.0,6.0,70,0.00,,BKN044,0.00,VWS V14.01,2013-07-22 18:13:00,
2013-07-22 14:19:00,86.1,75.6,29.89,SE,144,0.0,6.0,71,0.00,,BKN044,0.00,VWS V14.01,2013-07-22 18:19:00,
2013-07-22 14:25:00,85.7,75.2,29.89,SSE,156,4.0,8.0,71,0.00,,BKN044,0.00,VWS V14.01,2013-07-22 18:25:00,
2013-07-22 14:30:00,84.9,75.3,29.88,SE,126,2.0,2.0,73,0.00,,BKN044,0.00,VWS V14.01,2013-07-22 18:30:00,
2013-07-22 14:35:00,84.7,75.5,29.88,SE,128,0.0,4.0,74,0.00,,BKN044,0.00,VWS V14.01,2013-07-22 18:35:00,
2013-07-22 14:40:00,84.9,76.1,29.88,NE,46,0.0,5.0,75,0.00,,BKN044,0.00,VWS V14.01,2013-07-22 18:40:00,
2013-07-22 14:45:00,85.1,75.9,29.88,ESE,114,0.0,5.0,74,0.00,,BKN044,0.00,VWS V14.01,2013-07-22 18:45:00,
2013-07-22 14:50:00,85.3,76.1,29.89,ESE,107,1.0,5.0,74,0.00,,BKN044,0.00,VWS V14.01,2013-07-22 18:50:00,
2013-07-22 14:56:00,85.7,76.5,29.88,SSE,148,2.0,5.0,74,0.00,,BKN044,0.00,VWS V14.01,2013-07-22 18:56:00,
2013-07-22 15:01:00,85.5,75.4,29.88,SSE,147,1.0,1.0,72,0.00,,OVC060,0.00,VWS V14.01,2013-07-22 19:01:00,
2013-07-22 15:06:00,85.5,76.3,29.88,NE,51,3.0,3.0,74,0.00,,OVC060,0.00,VWS V14.01,2013-07-22 19:06:00,
2013-07-22 15:11:00,85.6,76.4,29.88,ENE,77,0.0,5.0,74,0.00,,OVC060,0.00,VWS V14.01,2013-07-22 19:11:00,
2013-07-22 15:16:00,85.6,76.8,29.88,ENE,63,0.0,5.0,75,0.00,,OVC060,0.00,VWS V14.01,2013-07-22 19:16:00,
2013-07-22 15:21:00,85.4,77.8,29.87,ENE,59,1.0,5.0,78,0.00,,OVC060,0.00,VWS V14.01,2013-07-22 19:21:00,
2013-07-22 15:26:00,85.2,77.2,29.87,NE,49,0.0,5.0,77,0.00,,OVC060,0.00,VWS V14.01,2013-07-22 19:26:00,
2013-07-22 15:31:00,85.0,77.0,29.87,NE,49,0.0,3.0,77,0.00,,OVC060,0.00,VWS V14.01,2013-07-22 19:31:00,
2013-07-22 15:36:00,84.9,76.9,29.86,ESE,118,0.0,3.0,77,0.00,,OVC060,0.00,VWS V14.01,2013-07-22 19:36:00,
2013-07-22 15:41:00,84.8,77.2,29.86,ENE,72,0.0,3.0,78,0.00,,OVC060,0.00,VWS V14.01,2013-07-22 19:41:00,
2013-07-22 15:47:00,85.0,77.0,29.86,ENE,69,1.0,4.0,77,0.00,,OVC060,0.00,VWS V14.01,2013-07-22 19:47:00,
2013-07-22 15:52:00,85.2,77.6,29.86,SE,143,0.0,5.0,78,0.00,,OVC060,0.00,VWS V14.01,2013-07-22 19:52:00,
2013-07-22 15:57:00,85.2,77.6,29.86,NNE,27,0.0,7.0,78,0.00,,OVC060,0.00,VWS V14.01,2013-07-22 19:57:00,
2013-07-22 16:02:00,85.4,78.2,29.85,NNE,16,2.0,5.0,79,0.00,,-RA,0.00,VWS V14.01,2013-07-22 20:02:00,
2013-07-22 16:07:00,85.3,77.7,29.85,East,82,1.0,5.0,78,0.00,,-RA,0.00,VWS V14.01,2013-07-22 20:07:00,
2013-07-22 16:12:00,85.0,77.8,29.85,ENE,76,0.0,5.0,79,0.00,,-RA,0.00,VWS V14.01,2013-07-22 20:12:00,
2013-07-22 16:17:00,84.9,77.7,29.85,NE,51,4.0,5.0,79,0.00,,-RA,0.00,VWS V14.01,2013-07-22 20:17:00,
2013-07-22 16:22:00,84.9,77.7,29.85,NNE,21,3.0,8.0,79,0.00,,-RA,0.00,VWS V14.01,2013-07-22 20:22:00,
2013-07-22 16:27:00,84.9,77.3,29.85,East,97,0.0,8.0,78,0.00,,-RA,0.00,VWS V14.01,2013-07-22 20:27:00,
2013-07-22 16:32:00,85.1,77.5,29.86,WNW,300,1.0,4.0,78,0.00,,-RA,0.00,VWS V14.01,2013-07-22 20:32:00,
2013-07-22 16:37:00,84.6,75.4,29.86,SSE,157,2.0,7.0,74,0.00,,-RA,0.00,VWS V14.01,2013-07-22 20:37:00,
2013-07-22 16:42:00,83.0,73.1,29.85,ESE,102,0.0,11.0,72,0.00,,-RA,0.00,VWS V14.01,2013-07-22 20:42:00,
2013-07-22 16:43:00,83.0,73.1,29.85,SE,134,0.0,11.0,72,0.00,,-RA,0.00,VWS V14.01,2013-07-22 20:43:00,
2013-07-22 16:48:00,81.9,72.0,29.85,SE,132,0.0,11.0,72,0.00,,-RA,0.00,VWS V14.01,2013-07-22 20:48:00,
2013-07-22 16:53:00,81.2,72.1,29.85,SSE,167,4.0,11.0,74,0.00,,-RA,0.00,VWS V14.01,2013-07-22 20:53:00,
2013-07-22 16:58:00,80.7,72.4,29.85,ENE,67,9.0,11.0,76,0.00,,-RA,0.00,VWS V14.01,2013-07-22 20:58:00,
2013-07-22 17:03:00,79.6,72.1,29.85,South,174,3.0,9.0,78,0.02,,-RA,0.02,VWS V14.01,2013-07-22 21:03:00,
2013-07-22 17:08:00,77.3,71.4,29.85,SSE,151,3.0,11.0,82,0.14,,-RA,0.14,VWS V14.01,2013-07-22 21:08:00,
2013-07-22 17:13:00,75.6,71.8,29.86,NE,42,4.0,11.0,88,0.24,,-RA,0.24,VWS V14.01,2013-07-22 21:13:00,
2013-07-22 17:18:00,75.2,72.4,29.86,NE,46,3.0,11.0,91,0.26,,-RA,0.26,VWS V14.01,2013-07-22 21:18:00,
2013-07-22 17:23:00,75.1,72.6,29.84,ENE,63,3.0,11.0,92,0.26,,-RA,0.26,VWS V14.01,2013-07-22 21:23:00,
2013-07-22 17:28:00,75.2,72.7,29.85,East,95,2.0,11.0,92,0.26,,-RA,0.26,VWS V14.01,2013-07-22 21:28:00,
2013-07-22 17:33:00,75.5,72.7,29.84,SE,142,4.0,6.0,91,0.26,,-RA,0.26,VWS V14.01,2013-07-22 21:33:00,
2013-07-22 17:38:00,75.6,73.1,29.84,ESE,109,0.0,8.0,92,0.26,,-RA,0.26,VWS V14.01,2013-07-22 21:38:00,
2013-07-22 17:43:00,75.7,73.5,29.85,SSE,167,2.0,8.0,93,0.26,,-RA,0.26,VWS V14.01,2013-07-22 21:43:00,
2013-07-22 17:48:00,75.6,73.8,29.85,SE,137,2.0,8.0,94,0.26,,-RA,0.26,VWS V14.01,2013-07-22 21:48:00,
2013-07-22 17:53:00,75.5,73.3,29.85,ESE,109,1.0,8.0,93,0.26,,-RA,0.26,VWS V14.01,2013-07-22 21:53:00,
2013-07-22 17:58:00,75.4,73.2,29.85,East,81,0.0,8.0,93,0.28,,-RA,0.28,VWS V14.01,2013-07-22 21:58:00,
2013-07-22 18:03:00,75.3,73.5,29.84,SSE,161,2.0,4.0,94,0.29,,RA,0.29,VWS V14.01,2013-07-22 22:03:00,
2013-07-22 18:08:00,75.2,73.7,29.84,SSE,150,2.0,5.0,95,0.31,, +RA,0.31,VWS V14.01,2013-07-22 22:08:00,
2013-07-22 18:13:00,75.4,73.9,29.84,ENE,67,3.0,7.0,95,0.32,, +RA,0.32,VWS V14.01,2013-07-22 22:13:00,
2013-07-22 18:18:00,75.6,74.4,29.85,ESE,120,0.0,7.0,96,0.33,, +RA,0.33,VWS V14.01,2013-07-22 22:18:00,
2013-07-22 18:23:00,75.6,74.4,29.85,South,186,1.0,7.0,96,0.33,, +RA,0.33,VWS V14.01,2013-07-22 22:23:00,
2013-07-22 18:28:00,75.7,74.2,29.85,SE,143,1.0,7.0,95,0.34,, +RA,0.34,VWS V14.01,2013-07-22 22:28:00,
2013-07-22 18:33:00,75.4,73.6,29.85,ESE,109,1.0,8.0,94,0.08,, +RA,0.34,VWS V14.01,2013-07-22 22:33:00,
2013-07-22 18:38:00,75.2,73.4,29.84,SSE,150,0.0,9.0,94,0.08,,-RA,0.34,VWS V14.01,2013-07-22 22:38:00,
2013-07-22 18:43:00,75.2,73.4,29.84,NE,52,0.0,9.0,94,0.08,,-RA,0.34,VWS V14.01,2013-07-22 22:43:00,
2013-07-22 18:48:00,75.2,73.4,29.84,ESE,112,1.0,9.0,94,0.08,,-RA,0.34,VWS V14.01,2013-07-22 22:48:00,
2013-07-22 18:53:00,75.2,73.7,29.85,East,82,0.0,9.0,95,0.08,,-RA,0.34,VWS V14.01,2013-07-22 22:53:00,
2013-07-22 18:58:00,75.1,73.6,29.85,SE,144,1.0,9.0,95,0.08,,-RA,0.34,VWS V14.01,2013-07-22 22:58:00,
2013-07-22 19:03:00,75.0,73.5,29.85,SE,143,2.0,4.0,95,0.06,,-RA,0.34,VWS V14.01,2013-07-22 23:03:00,
2013-07-22 19:08:00,74.9,73.4,29.85,SE,132,0.0,4.0,95,0.06,,-RA,0.34,VWS V14.01,2013-07-22 23:08:00,
2013-07-22 19:13:00,74.9,73.4,29.85,SE,142,0.0,4.0,95,0.06,,-RA,0.34,VWS V14.01,2013-07-22 23:13:00,
2013-07-22 19:19:00,74.8,73.3,29.84,SE,135,1.0,6.0,95,0.06,,-RA,0.34,VWS V14.01,2013-07-22 23:19:00,
2013-07-22 19:24:00,74.8,73.6,29.84,SSE,164,0.0,6.0,96,0.06,,-RA,0.34,VWS V14.01,2013-07-22 23:24:00,
2013-07-22 19:29:00,74.8,73.6,29.85,SSE,147,2.0,6.0,96,0.06,,-RA,0.34,VWS V14.01,2013-07-22 23:29:00,
2013-07-22 19:34:00,74.6,73.1,29.85,WSW,243,1.0,3.0,95,0.00,,-RA,0.34,VWS V14.01,2013-07-22 23:34:00,
2013-07-22 19:39:00,74.3,72.8,29.85,ESE,105,0.0,3.0,95,0.00,,-RA,0.34,VWS V14.01,2013-07-22 23:39:00,
2013-07-22 19:44:00,74.0,72.2,29.85,SE,128,0.0,6.0,94,0.00,,-RA,0.34,VWS V14.01,2013-07-22 23:44:00,
2013-07-22 19:49:00,73.8,72.3,29.85,East,80,3.0,6.0,95,0.00,,-RA,0.34,VWS V14.01,2013-07-22 23:49:00,
2013-07-22 19:54:00,73.6,72.1,29.85,SE,141,3.0,7.0,95,0.00,,-RA,0.34,VWS V14.01,2013-07-22 23:54:00,
2013-07-22 19:59:00,73.5,72.0,29.84,ENE,73,1.0,7.0,95,0.00,,-RA,0.34,VWS V14.01,2013-07-22 23:59:00,
2013-07-22 20:04:00,73.4,71.9,29.84,SE,129,0.0,2.0,95,0.00,,,0.34,VWS V14.01,2013-07-23 00:04:00,
2013-07-22 20:09:00,73.4,71.9,29.85,SE,131,0.0,2.0,95,0.01,,,0.35,VWS V14.01,2013-07-23 00:09:00,
2013-07-22 20:14:00,73.3,72.1,29.85,South,172,0.0,2.0,96,0.02,,,0.36,VWS V14.01,2013-07-23 00:14:00,
2013-07-22 20:19:00,73.2,71.7,29.86,South,172,0.0,2.0,95,0.02,,,0.36,VWS V14.01,2013-07-23 00:19:00,
2013-07-22 20:24:00,73.2,72.0,29.86,South,173,0.0,2.0,96,0.03,,,0.37,VWS V14.01,2013-07-23 00:24:00,
2013-07-22 20:29:00,73.2,72.0,29.86,South,182,0.0,2.0,96,0.04,,,0.38,VWS V14.01,2013-07-23 00:29:00,
2013-07-22 20:34:00,73.1,71.9,29.86,South,182,0.0,1.0,96,0.06,,,0.40,VWS V14.01,2013-07-23 00:34:00,
2013-07-22 20:39:00,73.1,71.9,29.85,South,182,0.0,1.0,96,0.06,,,0.40,VWS V14.01,2013-07-23 00:39:00,
2013-07-22 20:44:00,73.0,71.8,29.86,South,182,0.0,1.0,96,0.07,,-RA,0.41,VWS V14.01,2013-07-23 00:44:00,
2013-07-22 20:49:00,72.9,71.7,29.86,South,182,0.0,1.0,96,0.08,,-RA,0.42,VWS V14.01,2013-07-23 00:49:00,
2013-07-22 20:54:00,73.0,72.1,29.85,South,182,0.0,1.0,97,0.08,,-RA,0.42,VWS V14.01,2013-07-23 00:54:00,
2013-07-22 20:59:00,73.1,72.2,29.85,South,182,0.0,1.0,97,0.09,,-RA,0.43,VWS V14.01,2013-07-23 00:59:00,
2013-07-22 21:04:00,73.0,71.8,29.85,South,182,0.0,0.0,96,0.10,,-RA,0.44,VWS V14.01,2013-07-23 01:04:00,
2013-07-22 21:09:00,72.9,71.7,29.85,South,182,0.0,1.0,96,0.11,,-RA,0.45,VWS V14.01,2013-07-23 01:09:00,
2013-07-22 21:14:00,73.0,72.1,29.84,South,181,0.0,1.0,97,0.12,,RA,0.46,VWS V14.01,2013-07-23 01:14:00,
2013-07-22 21:19:00,73.0,72.1,29.84,South,181,0.0,1.0,97,0.12,,RA,0.46,VWS V14.01,2013-07-23 01:19:00,
2013-07-22 21:24:00,72.9,71.7,29.84,South,180,0.0,2.0,96,0.12,,RA,0.46,VWS V14.01,2013-07-23 01:24:00,
2013-07-22 21:29:00,72.9,72.0,29.84,SE,130,0.0,2.0,97,0.13,,RA,0.47,VWS V14.01,2013-07-23 01:29:00,
2013-07-22 21:34:00,72.7,71.8,29.84,SE,140,4.0,4.0,97,0.09,,RA,0.47,VWS V14.01,2013-07-23 01:34:00,
2013-07-22 21:39:00,72.7,71.8,29.83,SE,143,0.0,4.0,97,0.09,,RA,0.47,VWS V14.01,2013-07-23 01:39:00,
2013-07-22 21:44:00,72.7,71.8,29.83,SE,143,1.0,4.0,97,0.09,,RA,0.47,VWS V14.01,2013-07-23 01:44:00,
2013-07-22 21:49:00,72.7,71.8,29.83,SE,143,0.0,4.0,97,0.09,,RA,0.47,VWS V14.01,2013-07-23 01:49:00,
2013-07-22 21:54:00,72.7,71.8,29.83,SE,141,1.0,4.0,97,0.09,,RA,0.47,VWS V14.01,2013-07-23 01:54:00,
2013-07-22 21:59:00,72.6,71.7,29.83,SE,133,1.0,1.0,97,0.04,,-RA,0.47,VWS V14.01,2013-07-23 01:59:00,
2013-07-22 22:04:00,72.6,71.7,29.83,SE,137,1.0,3.0,97,0.04,,-RA,0.47,VWS V14.01,2013-07-23 02:04:00,
2013-07-22 22:09:00,72.5,71.6,29.83,SE,143,0.0,3.0,97,0.04,,-RA,0.47,VWS V14.01,2013-07-23 02:09:00,
2013-07-22 22:15:00,72.5,71.6,29.83,SE,142,0.0,3.0,97,0.04,,BKN019,0.47,VWS V14.01,2013-07-23 02:15:00,
2013-07-22 22:20:00,72.5,71.6,29.83,SE,142,2.0,3.0,97,0.04,,BKN019,0.47,VWS V14.01,2013-07-23 02:20:00,
2013-07-22 22:25:00,72.5,71.6,29.82,SE,141,1.0,3.0,97,0.04,,,0.47,VWS V14.01,2013-07-23 02:25:00,
2013-07-22 22:30:00,72.5,71.6,29.82,SSE,148,0.0,0.0,97,0.00,,,0.47,VWS V14.01,2013-07-23 02:30:00,
2013-07-22 22:35:00,72.6,72.0,29.82,SE,146,0.0,3.0,98,0.00,,,0.47,VWS V14.01,2013-07-23 02:35:00,
2013-07-22 22:40:00,72.6,72.0,29.82,SSE,148,0.0,3.0,98,0.00,,,0.47,VWS V14.01,2013-07-23 02:40:00,
2013-07-22 22:45:00,72.6,72.0,29.82,SE,138,0.0,3.0,98,0.00,,,0.47,VWS V14.01,2013-07-23 02:45:00,
2013-07-22 22:50:00,72.6,72.0,29.82,SE,138,0.0,3.0,98,0.00,,,0.47,VWS V14.01,2013-07-23 02:50:00,
2013-07-22 22:55:00,72.7,72.1,29.82,SE,138,1.0,3.0,98,0.00,,,0.47,VWS V14.01,2013-07-23 02:55:00,
2013-07-22 23:00:00,72.8,72.2,29.82,SE,138,0.0,1.0,98,0.00,,-RA,0.47,VWS V14.01,2013-07-23 03:00:00,
2013-07-22 23:05:00,72.9,72.3,29.82,SE,138,0.0,1.0,98,0.00,,-RA,0.47,VWS V14.01,2013-07-23 03:05:00,
2013-07-22 23:10:00,72.9,72.3,29.82,SE,138,0.0,1.0,98,0.00,,-RA,0.47,VWS V14.01,2013-07-23 03:10:00,
2013-07-22 23:15:00,73.0,72.4,29.81,SE,138,0.0,1.0,98,0.00,,-RA,0.47,VWS V14.01,2013-07-23 03:15:00,
2013-07-22 23:20:00,73.1,72.5,29.81,SE,138,0.0,1.0,98,0.00,,-RA,0.47,VWS V14.01,2013-07-23 03:20:00,
2013-07-22 23:25:00,73.1,72.5,29.81,SE,138,0.0,1.0,98,0.00,,-RA,0.47,VWS V14.01,2013-07-23 03:25:00,
2013-07-22 23:30:00,73.2,72.6,29.81,SE,138,0.0,0.0,98,0.00,,-RA,0.47,VWS V14.01,2013-07-23 03:30:00,
2013-07-22 23:35:00,73.3,72.7,29.81,SE,138,0.0,0.0,98,0.00,,-RA,0.47,VWS V14.01,2013-07-23 03:35:00,
2013-07-22 23:40:00,73.3,72.7,29.81,SE,138,0.0,0.0,98,0.00,,-RA,0.47,VWS V14.01,2013-07-23 03:40:00,
2013-07-22 23:45:00,73.3,72.7,29.81,SE,138,0.0,0.0,98,0.00,,,0.47,VWS V14.01,2013-07-23 03:45:00,
2013-07-22 23:50:00,73.4,72.8,29.81,SE,138,0.0,0.0,98,0.00,,,0.47,VWS V14.01,2013-07-23 03:50:00,
2013-07-22 23:55:00,73.5,72.9,29.81,SE,138,0.0,0.0,98,0.00,,,0.47,VWS V14.01,2013-07-23 03:55:00,